Year,Month,Day,Hour,Minute,Value (Times are PST for temperature in C)
2009,05,29,00,00,11.40
2009,05,29,00,01,11.40
2009,05,29,00,02,11.40
2009,05,29,00,03,11.40
2009,05,29,00,04,11.40
2009,05,29,00,05,11.30
2009,05,29,00,06,11.30
2009,05,29,00,07,11.30
2009,05,29,00,08,11.30
2009,05,29,00,09,11.30
2009,05,29,00,10,11.30
2009,05,29,00,11,11.30
2009,05,29,00,12,11.20
2009,05,29,00,18,11.20
2009,05,29,00,19,11.20
2009,05,29,00,20,11.20
2009,05,29,00,21,11.20
2009,05,29,00,22,11.20
2009,05,29,00,23,11.20
2009,05,29,00,24,11.20
2009,05,29,00,25,11.10
2009,05,29,00,26,11.10
2009,05,29,00,27,11.10
2009,05,29,00,28,11.10
2009,05,29,00,29,11.10
2009,05,29,00,30,11.10
2009,05,29,00,31,11.10
2009,05,29,00,32,11.00
2009,05,29,00,33,11.00
2009,05,29,00,34,10.90
2009,05,29,00,35,10.90
2009,05,29,00,36,10.90
2009,05,29,00,37,10.90
2009,05,29,00,38,10.80
2009,05,29,00,39,10.80
2009,05,29,00,40,10.80
2009,05,29,00,41,10.80
2009,05,29,00,42,10.70
2009,05,29,00,43,10.70
2009,05,29,00,44,10.70
2009,05,29,00,45,10.80
2009,05,29,00,46,10.80
2009,05,29,00,47,10.80
2009,05,29,00,48,10.90
2009,05,29,00,49,10.90
2009,05,29,00,50,10.90
2009,05,29,00,51,10.90
2009,05,29,00,52,10.90
2009,05,29,00,53,10.90
2009,05,29,00,54,10.90
2009,05,29,00,55,10.90
2009,05,29,00,56,10.90
2009,05,29,00,57,10.80
2009,05,29,00,58,10.80
2009,05,29,00,59,10.80
2009,05,29,01,00,10.80
2009,05,29,01,01,10.80
2009,05,29,01,02,10.80
2009,05,29,01,03,10.80
2009,05,29,01,04,10.80
2009,05,29,01,05,10.80
2009,05,29,01,06,10.80
2009,05,29,01,07,10.80
2009,05,29,01,08,10.80
2009,05,29,01,09,10.70
2009,05,29,01,10,10.70
2009,05,29,01,11,10.70
2009,05,29,01,12,10.70
2009,05,29,01,13,10.70
2009,05,29,01,14,10.70
2009,05,29,01,15,10.60
2009,05,29,01,16,10.60
2009,05,29,01,17,10.60
2009,05,29,01,18,10.60
2009,05,29,01,19,10.50
2009,05,29,01,20,10.50
2009,05,29,01,21,10.40
2009,05,29,01,22,10.40
2009,05,29,01,23,10.40
2009,05,29,01,24,10.40
2009,05,29,01,25,10.30
2009,05,29,01,26,10.30
2009,05,29,01,27,10.30
2009,05,29,01,28,10.30
2009,05,29,01,29,10.20
2009,05,29,01,30,10.20
2009,05,29,01,31,10.20
2009,05,29,01,32,10.20
2009,05,29,01,33,10.20
2009,05,29,01,34,10.20
2009,05,29,01,35,10.10
2009,05,29,01,36,10.10
2009,05,29,01,37,10.10
2009,05,29,01,38,10.10
2009,05,29,01,39,10.10
2009,05,29,01,40,10.00
2009,05,29,01,41,10.00
2009,05,29,01,42,10.00
2009,05,29,01,43,9.90
2009,05,29,01,44,9.90
2009,05,29,01,45,9.90
2009,05,29,01,46,9.90
2009,05,29,01,47,9.90
2009,05,29,01,48,10.00
2009,05,29,01,49,10.10
2009,05,29,01,50,10.10
2009,05,29,01,51,10.10
2009,05,29,01,52,10.10
2009,05,29,01,53,10.10
2009,05,29,01,54,10.10
2009,05,29,01,55,10.10
2009,05,29,01,56,10.10
2009,05,29,01,57,10.00
2009,05,29,01,58,10.00
2009,05,29,01,59,10.00
2009,05,29,02,00,9.90
2009,05,29,02,01,9.90
2009,05,29,02,02,9.90
2009,05,29,02,03,9.90
2009,05,29,02,04,9.90
2009,05,29,02,05,9.90
2009,05,29,02,06,9.90
2009,05,29,02,07,9.80
2009,05,29,02,08,9.80
2009,05,29,02,09,9.80
2009,05,29,02,10,9.80
2009,05,29,02,11,9.80
2009,05,29,02,12,9.80
2009,05,29,02,13,9.80
2009,05,29,02,14,9.80
2009,05,29,02,15,9.70
2009,05,29,02,16,9.70
2009,05,29,02,17,9.70
2009,05,29,02,18,9.70
2009,05,29,02,19,9.70
2009,05,29,02,20,9.70
2009,05,29,02,21,9.70
2009,05,29,02,22,9.70
2009,05,29,02,23,9.70
2009,05,29,02,24,9.70
2009,05,29,02,25,9.70
2009,05,29,02,26,9.70
2009,05,29,02,27,9.70
2009,05,29,02,28,9.60
2009,05,29,02,29,9.60
2009,05,29,02,30,9.60
2009,05,29,02,31,9.60
2009,05,29,02,32,9.60
2009,05,29,02,33,9.60
2009,05,29,02,34,9.60
2009,05,29,02,35,9.60
2009,05,29,02,36,9.60
2009,05,29,02,37,9.50
2009,05,29,02,38,9.50
2009,05,29,02,39,9.50
2009,05,29,02,40,9.50
2009,05,29,02,41,9.50
2009,05,29,02,42,9.50
2009,05,29,02,43,9.40
2009,05,29,02,44,9.40
2009,05,29,02,45,9.40
2009,05,29,02,46,9.40
2009,05,29,02,47,9.40
2009,05,29,02,48,9.40
2009,05,29,02,49,9.40
2009,05,29,02,50,9.30
2009,05,29,02,51,9.30
2009,05,29,02,52,9.30
2009,05,29,02,53,9.30
2009,05,29,02,54,9.30
2009,05,29,02,55,9.30
2009,05,29,02,56,9.30
2009,05,29,02,57,9.30
2009,05,29,02,58,9.20
2009,05,29,02,59,9.20
2009,05,29,03,00,9.20
2009,05,29,03,01,9.20
2009,05,29,03,02,9.20
2009,05,29,03,03,9.20
2009,05,29,03,04,9.20
2009,05,29,03,05,9.20
2009,05,29,03,06,9.20
2009,05,29,03,07,9.20
2009,05,29,03,08,9.20
2009,05,29,03,09,9.20
2009,05,29,03,10,9.20
2009,05,29,03,11,9.20
2009,05,29,03,12,9.20
2009,05,29,03,13,9.20
2009,05,29,03,14,9.20
2009,05,29,03,15,9.20
2009,05,29,03,16,9.30
2009,05,29,03,17,9.30
2009,05,29,03,18,9.30
2009,05,29,03,19,9.30
2009,05,29,03,20,9.30
2009,05,29,03,21,9.20
2009,05,29,03,22,9.20
2009,05,29,03,23,9.20
2009,05,29,03,24,9.20
2009,05,29,03,25,9.20
2009,05,29,03,26,9.20
2009,05,29,03,27,9.20
2009,05,29,03,28,9.10
2009,05,29,03,29,9.10
2009,05,29,03,30,9.10
2009,05,29,03,31,9.10
2009,05,29,03,32,9.10
2009,05,29,03,33,9.10
2009,05,29,03,34,9.10
2009,05,29,03,35,9.10
2009,05,29,03,36,9.10
2009,05,29,03,37,9.10
2009,05,29,03,38,9.00
2009,05,29,03,39,9.00
2009,05,29,03,40,9.00
2009,05,29,03,41,9.00
2009,05,29,03,42,9.00
2009,05,29,03,43,8.90
2009,05,29,03,44,8.90
2009,05,29,03,45,8.90
2009,05,29,03,46,8.90
2009,05,29,03,47,9.00
2009,05,29,03,48,9.00
2009,05,29,03,49,9.00
2009,05,29,03,50,9.10
2009,05,29,03,51,9.10
2009,05,29,03,52,9.10
2009,05,29,03,53,9.10
2009,05,29,03,54,9.20
2009,05,29,03,55,9.20
2009,05,29,03,56,9.20
2009,05,29,03,57,9.20
2009,05,29,03,58,9.20
2009,05,29,03,59,9.20
2009,05,29,04,00,9.20
2009,05,29,04,01,9.10
2009,05,29,04,02,9.10
2009,05,29,04,03,9.10
2009,05,29,04,04,9.10
2009,05,29,04,05,9.00
2009,05,29,04,06,9.00
2009,05,29,04,07,8.90
2009,05,29,04,08,8.90
2009,05,29,04,09,8.90
2009,05,29,04,10,8.90
2009,05,29,04,11,8.90
2009,05,29,04,12,8.90
2009,05,29,04,13,8.80
2009,05,29,04,14,8.80
2009,05,29,04,15,8.80
2009,05,29,04,16,8.80
2009,05,29,04,17,8.80
2009,05,29,04,18,8.80
2009,05,29,04,19,8.80
2009,05,29,04,20,8.80
2009,05,29,04,21,8.80
2009,05,29,04,22,8.80
2009,05,29,04,23,8.80
2009,05,29,04,24,8.80
2009,05,29,04,25,8.80
2009,05,29,04,26,8.80
2009,05,29,04,27,8.80
2009,05,29,04,28,8.80
2009,05,29,04,29,8.80
2009,05,29,04,30,8.80
2009,05,29,04,31,8.80
2009,05,29,04,32,8.80
2009,05,29,04,33,8.80
2009,05,29,04,34,8.80
2009,05,29,04,35,8.80
2009,05,29,04,36,8.80
2009,05,29,04,37,8.80
2009,05,29,04,38,8.70
2009,05,29,04,39,8.70
2009,05,29,04,40,8.70
2009,05,29,04,41,8.70
2009,05,29,04,42,8.70
2009,05,29,04,43,8.70
2009,05,29,04,44,8.70
2009,05,29,04,45,8.60
2009,05,29,04,46,8.60
2009,05,29,04,47,8.60
2009,05,29,04,48,8.60
2009,05,29,04,49,8.60
2009,05,29,04,50,8.60
2009,05,29,04,51,8.60
2009,05,29,04,52,8.60
2009,05,29,04,53,8.60
2009,05,29,04,54,8.60
2009,05,29,04,55,8.60
2009,05,29,04,56,8.60
2009,05,29,04,57,8.60
2009,05,29,04,58,8.60
2009,05,29,04,59,8.60
2009,05,29,05,00,8.60
2009,05,29,05,01,8.60
2009,05,29,05,02,8.60
2009,05,29,05,03,8.60
2009,05,29,05,04,8.60
2009,05,29,05,05,8.60
2009,05,29,05,06,8.50
2009,05,29,05,07,8.50
2009,05,29,05,08,8.50
2009,05,29,05,09,8.50
2009,05,29,05,10,8.40
2009,05,29,05,11,8.40
2009,05,29,05,12,8.40
2009,05,29,05,13,8.40
2009,05,29,05,14,8.40
2009,05,29,05,15,8.40
2009,05,29,05,16,8.40
2009,05,29,05,17,8.40
2009,05,29,05,18,8.40
2009,05,29,05,19,8.40
2009,05,29,05,20,8.40
2009,05,29,05,21,8.40
2009,05,29,05,22,8.40
2009,05,29,05,23,8.40
2009,05,29,05,24,8.40
2009,05,29,05,25,8.40
2009,05,29,05,26,8.40
2009,05,29,05,27,8.40
2009,05,29,05,28,8.40
2009,05,29,05,29,8.40
2009,05,29,05,30,8.40
2009,05,29,05,31,8.40
2009,05,29,05,32,8.40
2009,05,29,05,33,8.40
2009,05,29,05,34,8.40
2009,05,29,05,35,8.40
2009,05,29,05,36,8.40
2009,05,29,05,37,8.40
2009,05,29,05,38,8.40
2009,05,29,05,39,8.40
2009,05,29,05,40,8.40
2009,05,29,05,41,8.40
2009,05,29,05,42,8.40
2009,05,29,05,43,8.40
2009,05,29,05,44,8.40
2009,05,29,05,45,8.40
2009,05,29,05,46,8.40
2009,05,29,05,47,8.40
2009,05,29,05,48,8.40
2009,05,29,05,49,8.50
2009,05,29,05,50,8.40
2009,05,29,05,51,8.50
2009,05,29,05,52,8.50
2009,05,29,05,53,8.50
2009,05,29,05,54,8.50
2009,05,29,05,55,8.50
2009,05,29,05,56,8.50
2009,05,29,05,57,8.50
2009,05,29,05,58,8.50
2009,05,29,05,59,8.60
2009,05,29,06,00,8.50
2009,05,29,06,01,8.50
2009,05,29,06,02,8.50
2009,05,29,06,03,8.50
2009,05,29,06,04,8.50
2009,05,29,06,05,8.60
2009,05,29,06,06,8.60
2009,05,29,06,07,8.70
2009,05,29,06,08,8.70
2009,05,29,06,09,8.80
2009,05,29,06,10,8.80
2009,05,29,06,11,8.80
2009,05,29,06,12,8.80
2009,05,29,06,13,8.80
2009,05,29,06,14,8.80
2009,05,29,06,15,8.80
2009,05,29,06,16,8.80
2009,05,29,06,17,8.80
2009,05,29,06,18,8.80
2009,05,29,06,19,8.80
2009,05,29,06,20,8.80
2009,05,29,06,21,8.80
2009,05,29,06,22,8.80
2009,05,29,06,23,8.90
2009,05,29,06,24,8.90
2009,05,29,06,25,9.00
2009,05,29,06,26,9.00
2009,05,29,06,27,9.10
2009,05,29,06,28,9.10
2009,05,29,06,29,9.10
2009,05,29,06,30,9.10
2009,05,29,06,31,9.20
2009,05,29,06,32,9.20
2009,05,29,06,33,9.20
2009,05,29,06,34,9.20
2009,05,29,06,35,9.20
2009,05,29,06,36,9.30
2009,05,29,06,37,9.30
2009,05,29,06,38,9.30
2009,05,29,06,39,9.40
2009,05,29,06,40,9.40
2009,05,29,06,41,9.50
2009,05,29,06,42,9.50
2009,05,29,06,43,9.50
2009,05,29,06,44,9.60
2009,05,29,06,45,9.60
2009,05,29,06,46,9.70
2009,05,29,06,47,9.80
2009,05,29,06,48,9.90
2009,05,29,06,49,9.90
2009,05,29,06,50,10.00
2009,05,29,06,51,10.10
2009,05,29,06,52,10.20
2009,05,29,06,53,10.30
2009,05,29,06,54,10.30
2009,05,29,06,55,10.40
2009,05,29,06,56,10.50
2009,05,29,06,57,10.50
2009,05,29,06,58,10.60
2009,05,29,06,59,10.70
2009,05,29,07,00,10.80
2009,05,29,07,01,10.80
2009,05,29,07,02,10.90
2009,05,29,07,03,11.00
2009,05,29,07,04,11.10
2009,05,29,07,05,11.10
2009,05,29,07,06,11.20
2009,05,29,07,07,11.30
2009,05,29,07,08,11.50
2009,05,29,07,09,11.60
2009,05,29,07,10,11.70
2009,05,29,07,11,11.80
2009,05,29,07,12,11.90
2009,05,29,07,13,12.00
2009,05,29,07,14,12.10
2009,05,29,07,15,12.10
2009,05,29,07,16,12.20
2009,05,29,07,17,12.20
2009,05,29,07,18,12.30
2009,05,29,07,19,12.30
2009,05,29,07,20,12.40
2009,05,29,07,21,12.50
2009,05,29,07,22,12.50
2009,05,29,07,23,12.60
2009,05,29,07,24,12.70
2009,05,29,07,25,12.80
2009,05,29,07,26,12.90
2009,05,29,07,27,13.00
2009,05,29,07,28,13.20
2009,05,29,07,29,13.40
2009,05,29,07,30,13.50
2009,05,29,07,31,13.70
2009,05,29,07,32,13.80
2009,05,29,07,33,13.90
2009,05,29,07,34,14.10
2009,05,29,07,35,14.20
2009,05,29,07,36,14.40
2009,05,29,07,37,14.50
2009,05,29,07,38,14.70
2009,05,29,07,39,14.80
2009,05,29,07,40,15.00
2009,05,29,07,41,15.00
2009,05,29,07,42,15.20
2009,05,29,07,43,15.40
2009,05,29,07,44,15.50
2009,05,29,07,45,15.60
2009,05,29,07,46,15.60
2009,05,29,07,47,15.60
2009,05,29,07,48,15.60
2009,05,29,07,49,15.60
2009,05,29,07,50,15.70
2009,05,29,07,51,15.70
2009,05,29,07,52,15.80
2009,05,29,07,53,15.80
2009,05,29,07,54,15.90
2009,05,29,07,55,16.00
2009,05,29,07,56,16.00
2009,05,29,07,57,16.10
2009,05,29,07,58,16.10
2009,05,29,07,59,16.10
2009,05,29,08,00,16.20
2009,05,29,08,01,16.20
2009,05,29,08,02,16.30
2009,05,29,08,03,16.30
2009,05,29,08,04,16.40
2009,05,29,08,05,16.50
2009,05,29,08,06,16.60
2009,05,29,08,07,16.70
2009,05,29,08,08,16.70
2009,05,29,08,09,16.80
2009,05,29,08,10,16.80
2009,05,29,08,11,16.90
2009,05,29,08,12,17.00
2009,05,29,08,13,17.10
2009,05,29,08,14,17.10
2009,05,29,08,15,17.20
2009,05,29,08,16,17.20
2009,05,29,08,17,17.30
2009,05,29,08,18,17.30
2009,05,29,08,19,17.30
2009,05,29,08,20,17.40
2009,05,29,08,21,17.40
2009,05,29,08,22,17.50
2009,05,29,08,23,17.70
2009,05,29,08,24,17.80
2009,05,29,08,25,17.90
2009,05,29,08,26,18.00
2009,05,29,08,27,18.10
2009,05,29,08,28,18.20
2009,05,29,08,29,18.30
2009,05,29,08,30,18.40
2009,05,29,08,31,18.50
2009,05,29,08,32,18.50
2009,05,29,08,33,18.60
2009,05,29,08,34,18.70
2009,05,29,08,35,18.80
2009,05,29,08,36,18.80
2009,05,29,08,37,18.80
2009,05,29,08,38,18.80
2009,05,29,08,39,18.80
2009,05,29,08,40,18.90
2009,05,29,08,41,19.00
2009,05,29,08,42,19.10
2009,05,29,08,43,19.10
2009,05,29,08,44,19.20
2009,05,29,08,45,19.20
2009,05,29,08,46,19.30
2009,05,29,08,47,19.40
2009,05,29,08,48,19.40
2009,05,29,08,49,19.50
2009,05,29,08,50,19.60
2009,05,29,08,51,19.60
2009,05,29,08,52,19.70
2009,05,29,08,53,19.70
2009,05,29,08,54,19.70
2009,05,29,08,55,19.70
2009,05,29,08,56,19.70
2009,05,29,08,57,19.80
2009,05,29,08,58,19.80
2009,05,29,08,59,19.80
2009,05,29,09,00,19.90
2009,05,29,09,01,19.90
2009,05,29,09,02,20.00
2009,05,29,09,03,20.00
2009,05,29,09,04,20.00
2009,05,29,09,05,20.00
2009,05,29,09,06,20.00
2009,05,29,09,07,20.10
2009,05,29,09,08,20.20
2009,05,29,09,09,20.30
2009,05,29,09,10,20.30
2009,05,29,09,11,20.30
2009,05,29,09,12,20.40
2009,05,29,09,13,20.50
2009,05,29,09,14,20.60
2009,05,29,09,15,20.60
2009,05,29,09,16,20.60
2009,05,29,09,17,20.60
2009,05,29,09,18,20.70
2009,05,29,09,19,20.70
2009,05,29,09,20,20.80
2009,05,29,09,21,20.80
2009,05,29,09,22,20.80
2009,05,29,09,23,20.80
2009,05,29,09,24,20.80
2009,05,29,09,25,20.80
2009,05,29,09,26,20.80
2009,05,29,09,27,20.70
2009,05,29,09,28,20.70
2009,05,29,09,29,20.70
2009,05,29,09,30,20.70
2009,05,29,09,31,20.70
2009,05,29,09,32,20.70
2009,05,29,09,33,20.60
2009,05,29,09,34,20.60
2009,05,29,09,35,20.60
2009,05,29,09,36,20.70
2009,05,29,09,37,20.70
2009,05,29,09,38,20.70
2009,05,29,09,39,20.70
2009,05,29,09,40,20.70
2009,05,29,09,41,20.70
2009,05,29,09,42,20.80
2009,05,29,09,43,20.90
2009,05,29,09,44,21.00
2009,05,29,09,45,21.00
2009,05,29,09,46,21.10
2009,05,29,09,47,21.10
2009,05,29,09,48,21.10
2009,05,29,09,49,21.10
2009,05,29,09,50,21.10
2009,05,29,09,51,21.10
2009,05,29,09,52,21.20
2009,05,29,09,53,21.20
2009,05,29,09,54,21.20
2009,05,29,09,55,21.20
2009,05,29,09,56,21.20
2009,05,29,09,57,21.20
2009,05,29,09,58,21.10
2009,05,29,09,59,21.10
2009,05,29,10,00,21.10
2009,05,29,10,01,21.10
2009,05,29,10,02,21.10
2009,05,29,10,03,21.20
2009,05,29,10,04,21.20
2009,05,29,10,05,21.20
2009,05,29,10,06,21.20
2009,05,29,10,07,21.30
2009,05,29,10,08,21.40
2009,05,29,10,09,21.30
2009,05,29,10,10,21.30
2009,05,29,10,11,21.30
2009,05,29,10,12,21.30
2009,05,29,10,13,21.30
2009,05,29,10,14,21.40
2009,05,29,10,15,21.50
2009,05,29,10,16,21.60
2009,05,29,10,17,21.70
2009,05,29,10,18,21.80
2009,05,29,10,19,21.80
2009,05,29,10,20,21.80
2009,05,29,10,21,21.90
2009,05,29,10,22,22.00
2009,05,29,10,23,22.10
2009,05,29,10,24,22.10
2009,05,29,10,25,22.10
2009,05,29,10,26,22.20
2009,05,29,10,27,22.20
2009,05,29,10,28,22.10
2009,05,29,10,29,22.10
2009,05,29,10,30,22.10
2009,05,29,10,31,22.10
2009,05,29,10,32,22.10
2009,05,29,10,33,22.10
2009,05,29,10,34,22.10
2009,05,29,10,35,22.10
2009,05,29,10,36,22.20
2009,05,29,10,37,22.30
2009,05,29,10,38,22.40
2009,05,29,10,39,22.40
2009,05,29,10,40,22.30
2009,05,29,10,41,22.20
2009,05,29,10,42,22.20
2009,05,29,10,43,22.20
2009,05,29,10,44,22.20
2009,05,29,10,45,22.20
2009,05,29,10,46,22.30
2009,05,29,10,47,22.30
2009,05,29,10,48,22.50
2009,05,29,10,49,22.60
2009,05,29,10,50,22.70
2009,05,29,10,51,22.70
2009,05,29,10,52,22.60
2009,05,29,10,53,22.60
2009,05,29,10,54,22.60
2009,05,29,10,55,22.70
2009,05,29,10,56,22.70
2009,05,29,10,57,22.70
2009,05,29,10,58,22.80
2009,05,29,10,59,23.00
2009,05,29,11,00,23.10
2009,05,29,11,01,23.20
2009,05,29,11,02,23.30
2009,05,29,11,03,23.40
2009,05,29,11,04,23.40
2009,05,29,11,05,23.20
2009,05,29,11,06,23.00
2009,05,29,11,07,22.90
2009,05,29,11,08,22.80
2009,05,29,11,09,22.70
2009,05,29,11,10,22.60
2009,05,29,11,11,22.60
2009,05,29,11,12,22.60
2009,05,29,11,13,22.60
2009,05,29,11,14,22.50
2009,05,29,11,15,22.40
2009,05,29,11,16,22.40
2009,05,29,11,17,22.40
2009,05,29,11,18,22.50
2009,05,29,11,19,22.50
2009,05,29,11,20,22.60
2009,05,29,11,21,22.70
2009,05,29,11,22,22.80
2009,05,29,11,23,22.90
2009,05,29,11,24,22.90
2009,05,29,11,25,23.00
2009,05,29,11,26,23.10
2009,05,29,11,27,23.10
2009,05,29,11,28,23.00
2009,05,29,11,29,23.00
2009,05,29,11,30,23.00
2009,05,29,11,31,23.00
2009,05,29,11,32,23.00
2009,05,29,11,33,23.00
2009,05,29,11,34,23.10
2009,05,29,11,35,23.10
2009,05,29,11,36,23.20
2009,05,29,11,37,23.20
2009,05,29,11,38,23.10
2009,05,29,11,39,22.90
2009,05,29,11,40,22.80
2009,05,29,11,41,22.70
2009,05,29,11,42,22.70
2009,05,29,11,43,22.70
2009,05,29,11,44,22.60
2009,05,29,11,45,22.60
2009,05,29,11,46,22.60
2009,05,29,11,47,22.60
2009,05,29,11,48,22.60
2009,05,29,11,49,22.70
2009,05,29,11,50,22.80
2009,05,29,11,51,22.90
2009,05,29,11,52,22.90
2009,05,29,11,53,23.00
2009,05,29,11,54,23.00
2009,05,29,11,55,23.10
2009,05,29,11,56,23.20
2009,05,29,11,57,23.20
2009,05,29,11,58,23.20
2009,05,29,11,59,23.20
2009,05,29,12,00,23.20
2009,05,29,12,01,23.20
2009,05,29,12,02,23.30
2009,05,29,12,03,23.40
2009,05,29,12,04,23.40
2009,05,29,12,05,23.40
2009,05,29,12,06,23.30
2009,05,29,12,07,23.40
2009,05,29,12,08,23.40
2009,05,29,12,09,23.40
2009,05,29,12,10,23.40
2009,05,29,12,11,23.50
2009,05,29,12,12,23.50
2009,05,29,12,13,23.40
2009,05,29,12,14,23.40
2009,05,29,12,15,23.40
2009,05,29,12,16,23.40
2009,05,29,12,17,23.40
2009,05,29,12,18,23.50
2009,05,29,12,19,23.50
2009,05,29,12,20,23.40
2009,05,29,12,21,23.40
2009,05,29,12,22,23.40
2009,05,29,12,23,23.40
2009,05,29,12,24,23.40
2009,05,29,12,25,23.30
2009,05,29,12,26,23.30
2009,05,29,12,27,23.30
2009,05,29,12,28,23.40
2009,05,29,12,29,23.60
2009,05,29,12,30,23.70
2009,05,29,12,31,23.80
2009,05,29,12,32,23.70
2009,05,29,12,33,23.70
2009,05,29,12,34,23.80
2009,05,29,12,35,23.90
2009,05,29,12,36,24.00
2009,05,29,12,37,24.00
2009,05,29,12,38,24.00
2009,05,29,12,39,24.00
2009,05,29,12,40,24.00
2009,05,29,12,41,23.90
2009,05,29,12,42,24.00
2009,05,29,12,43,24.10
2009,05,29,12,44,24.20
2009,05,29,12,45,24.20
2009,05,29,12,46,24.30
2009,05,29,12,47,24.30
2009,05,29,12,48,24.40
2009,05,29,12,49,24.50
2009,05,29,12,50,24.50
2009,05,29,12,51,24.60
2009,05,29,12,52,24.70
2009,05,29,12,53,24.80
2009,05,29,12,54,24.80
2009,05,29,12,55,24.70
2009,05,29,12,56,24.80
2009,05,29,12,57,24.90
2009,05,29,12,58,24.90
2009,05,29,12,59,25.00
2009,05,29,13,00,25.10
2009,05,29,13,01,25.00
2009,05,29,13,02,25.00
2009,05,29,13,03,25.00
2009,05,29,13,04,25.00
2009,05,29,13,05,25.00
2009,05,29,13,06,25.10
2009,05,29,13,07,25.10
2009,05,29,13,08,25.10
2009,05,29,13,09,25.20
2009,05,29,13,10,25.30
2009,05,29,13,11,25.50
2009,05,29,13,12,25.60
2009,05,29,13,13,25.70
2009,05,29,13,14,25.80
2009,05,29,13,15,25.90
2009,05,29,13,16,25.80
2009,05,29,13,17,25.80
2009,05,29,13,18,25.80
2009,05,29,13,19,25.80
2009,05,29,13,20,25.80
2009,05,29,13,21,25.90
2009,05,29,13,22,25.90
2009,05,29,13,23,25.90
2009,05,29,13,24,26.00
2009,05,29,13,25,26.00
2009,05,29,13,26,26.00
2009,05,29,13,27,25.90
2009,05,29,13,28,25.90
2009,05,29,13,29,25.90
2009,05,29,13,30,25.90
2009,05,29,13,31,25.80
2009,05,29,13,32,25.90
2009,05,29,13,33,25.80
2009,05,29,13,34,25.70
2009,05,29,13,35,25.80
2009,05,29,13,36,25.80
2009,05,29,13,37,25.90
2009,05,29,13,38,25.90
2009,05,29,13,39,25.90
2009,05,29,13,40,25.90
2009,05,29,13,41,25.90
2009,05,29,13,42,25.90
2009,05,29,13,43,25.90
2009,05,29,13,44,25.80
2009,05,29,13,45,25.80
2009,05,29,13,46,25.70
2009,05,29,13,47,25.70
2009,05,29,13,48,25.60
2009,05,29,13,49,25.60
2009,05,29,13,50,25.70
2009,05,29,13,51,25.80
2009,05,29,13,52,25.80
2009,05,29,13,53,25.80
2009,05,29,13,54,25.90
2009,05,29,13,55,26.00
2009,05,29,13,56,26.00
2009,05,29,13,57,26.10
2009,05,29,13,58,26.20
2009,05,29,13,59,26.20
2009,05,29,14,00,26.20
2009,05,29,14,01,26.30
2009,05,29,14,02,26.30
2009,05,29,14,03,26.20
2009,05,29,14,04,26.10
2009,05,29,14,05,26.20
2009,05,29,14,06,26.20
2009,05,29,14,07,26.10
2009,05,29,14,08,26.10
2009,05,29,14,09,26.10
2009,05,29,14,10,26.10
2009,05,29,14,11,26.20
2009,05,29,14,12,26.20
2009,05,29,14,13,26.30
2009,05,29,14,14,26.30
2009,05,29,14,15,26.30
2009,05,29,14,16,26.30
2009,05,29,14,17,26.30
2009,05,29,14,18,26.40
2009,05,29,14,19,26.40
2009,05,29,14,20,26.40
2009,05,29,14,21,26.40
2009,05,29,14,22,26.40
2009,05,29,14,23,26.40
2009,05,29,14,24,26.40
2009,05,29,14,25,26.40
2009,05,29,14,26,26.30
2009,05,29,14,27,26.40
2009,05,29,14,28,26.40
2009,05,29,14,29,26.30
2009,05,29,14,30,26.10
2009,05,29,14,31,26.10
2009,05,29,14,32,26.10
2009,05,29,14,33,26.10
2009,05,29,14,34,26.10
2009,05,29,14,35,26.10
2009,05,29,14,36,26.10
2009,05,29,14,37,26.00
2009,05,29,14,38,25.90
2009,05,29,14,39,26.00
2009,05,29,14,40,26.10
2009,05,29,14,41,26.20
2009,05,29,14,42,26.20
2009,05,29,14,43,26.10
2009,05,29,14,44,26.10
2009,05,29,14,45,26.10
2009,05,29,14,46,26.20
2009,05,29,14,47,26.20
2009,05,29,14,48,26.30
2009,05,29,14,49,26.30
2009,05,29,14,50,26.20
2009,05,29,14,51,26.20
2009,05,29,14,52,26.20
2009,05,29,14,53,26.20
2009,05,29,14,54,26.30
2009,05,29,14,55,26.20
2009,05,29,14,56,26.10
2009,05,29,14,57,26.10
2009,05,29,14,58,26.20
2009,05,29,14,59,26.20
2009,05,29,15,00,26.20
2009,05,29,15,01,26.10
2009,05,29,15,02,26.20
2009,05,29,15,03,26.20
2009,05,29,15,04,26.20
2009,05,29,15,05,26.20
2009,05,29,15,06,26.10
2009,05,29,15,07,26.00
2009,05,29,15,08,25.90
2009,05,29,15,09,25.90
2009,05,29,15,10,25.90
2009,05,29,15,11,25.90
2009,05,29,15,12,25.90
2009,05,29,15,13,25.90
2009,05,29,15,14,25.80
2009,05,29,15,15,25.80
2009,05,29,15,16,25.90
2009,05,29,15,17,25.90
2009,05,29,15,18,25.80
2009,05,29,15,19,25.80
2009,05,29,15,20,25.80
2009,05,29,15,21,25.80
2009,05,29,15,22,25.70
2009,05,29,15,23,25.60
2009,05,29,15,24,25.60
2009,05,29,15,25,25.60
2009,05,29,15,26,25.50
2009,05,29,15,27,25.50
2009,05,29,15,28,25.60
2009,05,29,15,29,25.60
2009,05,29,15,30,25.60
2009,05,29,15,31,25.70
2009,05,29,15,32,25.80
2009,05,29,15,33,25.70
2009,05,29,15,34,25.80
2009,05,29,15,35,25.90
2009,05,29,15,36,25.90
2009,05,29,15,37,25.90
2009,05,29,15,38,25.80
2009,05,29,15,39,25.80
2009,05,29,15,40,25.90
2009,05,29,15,41,25.80
2009,05,29,15,42,25.70
2009,05,29,15,43,25.70
2009,05,29,15,44,25.70
2009,05,29,15,45,25.60
2009,05,29,15,46,25.50
2009,05,29,15,47,25.50
2009,05,29,15,48,25.40
2009,05,29,15,49,25.40
2009,05,29,15,50,25.40
2009,05,29,15,51,25.40
2009,05,29,15,52,25.40
2009,05,29,15,53,25.40
2009,05,29,15,54,25.40
2009,05,29,15,55,25.50
2009,05,29,15,56,25.50
2009,05,29,15,57,25.40
2009,05,29,15,58,25.40
2009,05,29,15,59,25.40
2009,05,29,16,00,25.30
2009,05,29,16,01,25.40
2009,05,29,16,02,25.40
2009,05,29,16,03,25.40
2009,05,29,16,04,25.30
2009,05,29,16,05,25.30
2009,05,29,16,06,25.30
2009,05,29,16,07,25.20
2009,05,29,16,08,25.20
2009,05,29,16,09,25.30
2009,05,29,16,10,25.30
2009,05,29,16,11,25.30
2009,05,29,16,12,25.30
2009,05,29,16,13,25.20
2009,05,29,16,14,25.10
2009,05,29,16,15,25.10
2009,05,29,16,16,25.10
2009,05,29,16,17,25.20
2009,05,29,16,18,25.30
2009,05,29,16,19,25.30
2009,05,29,16,20,25.40
2009,05,29,16,21,25.40
2009,05,29,16,22,25.40
2009,05,29,16,23,25.40
2009,05,29,16,24,25.40
2009,05,29,16,25,25.40
2009,05,29,16,26,25.30
2009,05,29,16,27,25.40
2009,05,29,16,28,25.50
2009,05,29,16,29,25.60
2009,05,29,16,30,25.60
2009,05,29,16,31,25.60
2009,05,29,16,32,25.70
2009,05,29,16,33,25.70
2009,05,29,16,34,25.70
2009,05,29,16,35,25.60
2009,05,29,16,36,25.40
2009,05,29,16,37,25.30
2009,05,29,16,38,25.30
2009,05,29,16,39,25.30
2009,05,29,16,40,25.20
2009,05,29,16,41,25.10
2009,05,29,16,42,25.10
2009,05,29,16,43,25.10
2009,05,29,16,44,25.20
2009,05,29,16,45,25.20
2009,05,29,16,46,25.30
2009,05,29,16,47,25.40
2009,05,29,16,48,25.40
2009,05,29,16,49,25.40
2009,05,29,16,50,25.40
2009,05,29,16,51,25.40
2009,05,29,16,52,25.40
2009,05,29,16,53,25.40
2009,05,29,16,54,25.30
2009,05,29,16,55,25.20
2009,05,29,16,56,25.20
2009,05,29,16,57,25.20
2009,05,29,16,58,25.20
2009,05,29,16,59,25.20
2009,05,29,17,00,25.20
2009,05,29,17,01,25.10
2009,05,29,17,02,25.10
2009,05,29,17,03,25.00
2009,05,29,17,04,25.00
2009,05,29,17,05,25.00
2009,05,29,17,06,25.00
2009,05,29,17,07,24.90
2009,05,29,17,08,24.80
2009,05,29,17,09,24.70
2009,05,29,17,10,24.60
2009,05,29,17,11,24.50
2009,05,29,17,12,24.50
2009,05,29,17,13,24.60
2009,05,29,17,14,24.60
2009,05,29,17,15,24.60
2009,05,29,17,16,24.60
2009,05,29,17,17,24.60
2009,05,29,17,18,24.70
2009,05,29,17,19,24.60
2009,05,29,17,20,24.50
2009,05,29,17,21,24.40
2009,05,29,17,22,24.20
2009,05,29,17,23,24.20
2009,05,29,17,24,24.10
2009,05,29,17,25,24.00
2009,05,29,17,26,23.80
2009,05,29,17,27,23.70
2009,05,29,17,28,23.50
2009,05,29,17,29,23.40
2009,05,29,17,30,23.40
2009,05,29,17,31,23.30
2009,05,29,17,32,23.30
2009,05,29,17,33,23.40
2009,05,29,17,34,23.40
2009,05,29,17,35,23.40
2009,05,29,17,36,23.30
2009,05,29,17,37,23.20